Location: Tierra del Sol
(32.6128°N, 116.3319°W)
Time: 01:24:31
(UTC-07:00)

Vanguard 2 - Pass Details

Date: 28 April 2018
Orbit: 552 x 2940 km, 32.9° (Epoch: 21 May)

Event Time Altitude Azimuth Distance (km) Brightness Sun altitude
Rises 21:02:55 0° 249° (WSW) 6,497 12.8 -19.5°
Reaches altitude 10° 21:07:38 10° 248° (WSW) 5,240 12.2 -20.3°
Maximum altitude 21:22:04 78° 165° (SSE) 1,826 9.2 -22.8°
Enters shadow 21:27:48 27° 84° (E) 2,474 9.7 -23.8°
Drops below altitude 10° 21:30:34 10° 81° (E) 3,248 - -24.3°
Sets 21:32:51 0° 80° (E) 3,970 - -24.6°
